GW4151 Weather Reports


time (UTC)temp
C
wind
direction
speed
KPH
gust
KPH
rain 1hr
cm
rain 24hr
cm
rain mn
cm
humidity
%
barometer
mb
20260901073952 23 187 1.6 4.8 0.00 0.00 0.00 95 993.3
20260901072449 23 190 1.6 1.6 0.00 0.00 0.00 95 993.3
20260901070949 23 188 0.0 3.2 0.00 0.00 0.00 94 993.2
20260901065445 23 194 1.6 4.8 0.00 0.00 0.00 94 993.5
20260901063945 23 168 1.6 1.6 0.00 0.00 0.00 94 993.3
20260901062444 23 206 0.0 0.0 0.00 0.00 0.00 95 993.5
20260901060942 23 191 0.0 1.6 0.00 0.00 0.00 94 993.6
20260901055440 23 197 0.0 0.0 0.00 0.00 0.00 93 993.4
20260901053935 23 193 0.0 1.6 0.00 0.00 0.00 92 993.7
20260901052432 24 227 1.6 1.6 0.00 0.00 0.00 92 993.7
20260901050927 24 220 3.2 3.2 0.00 0.00 0.00 91 993.6
20260901045423 24 211 3.2 4.8 0.00 0.00 0.00 90 993.6
20260901043922 24 221 3.2 4.8 0.00 0.00 0.00 89 993.6
20260901042418 25 203 3.2 4.8 0.00 0.00 0.00 89 993.6
20260901040913 24 230 3.2 4.8 0.00 0.00 0.00 88 993.7
20260901035412 23 188 0.0 1.6 0.00 0.61 0.61 91 993.8
20260901033912 23 199 0.0 0.0 0.00 0.61 0.61 92 994.0
20260901032409 23 196 0.0 1.6 0.00 0.61 0.61 91 993.8
20260901030906 23 47 0.0 0.0 0.00 0.61 0.61 90 993.9
20260901025401 24 198 0.0 1.6 0.00 0.61 0.61 88 993.6
20260901023900 24 210 3.2 3.2 0.00 0.61 0.61 87 993.2
20260901022358 25 198 3.2 6.4 0.00 0.61 0.61 86 993.1
20260901020855 25 125 4.8 9.7 0.00 0.61 0.61 86 993.3
20260901015352 24 216 4.8 6.4 0.00 0.61 0.61 87 993.6
20260901013848 25 193 1.6 4.8 0.00 0.61 0.61 85 994.0
20260901012346 25 174 3.2 6.4 0.00 0.61 0.61 83 993.3
20260901010842 25 209 1.6 3.2 0.00 0.61 0.61 84 993.6
20260901005343 25 194 1.6 3.2 0.00 0.61 0.61 83 993.4
20260901003838 25 175 3.2 4.8 0.00 0.61 0.61 81 993.4
20260901002337 26 190 0.0 6.4 0.00 0.61 0.61 81 993.3
20260901000834 26 221 3.2 6.4 0.00 0.61 0.61 80 993.2
20260831235330 26 242 4.8 6.4 0.00 0.61 0.61 80 993.3
20260831233826 27 226 3.2 9.7 0.00 0.61 0.61 78 993.3
20260831232324 27 214 4.8 9.7 0.00 0.61 0.61 77 992.9
20260831230823 27 213 6.4 9.7 0.00 0.61 0.61 78 993.1
20260831225318 27 239 4.8 9.7 0.00 0.61 0.61 78 993.4
20260831223815 27 205 9.7 12.9 0.00 0.61 0.61 77 993.2
20260831222315 27 193 1.6 4.8 0.00 0.61 0.61 77 992.5
20260831220811 28 190 4.8 11.3 0.00 0.61 0.61 74 992.6
20260831215309 28 157 6.4 11.3 0.00 0.61 0.61 71 992.9
20260831213804 29 205 6.4 12.9 0.00 0.61 0.61 68 992.9
20260831212306 30 180 6.4 12.9 0.00 0.61 0.61 63 992.8
20260831210803 29 182 6.4 16.1 0.00 0.61 0.61 67 992.8
20260831205305 28 240 3.2 9.7 0.00 0.61 0.61 71 992.8
20260831203800 26 139 9.7 17.7 0.89 0.61 0.61 77 992.6
20260831202300 26 254 6.4 12.9 0.36 0.46 0.46 80 993.1
20260831200800 26 200 1.6 9.7 0.00 0.41 0.41 83 993.2
20260831195258 26 205 3.2 4.8 0.00 0.41 0.41 87 993.2
20260831193754 25 181 3.2 6.4 0.00 0.41 0.41 91 992.7
20260831192251 25 182 0.0 1.6 0.18 0.33 0.33 93 993.8
20260831190750 25 185 1.6 1.6 0.43 0.30 0.30 93 993.5
20260831185246 25 172 3.2 6.4 0.18 0.05 0.05 86 993.9
20260831183741 26 172 3.2 3.2 0.00 0.03 0.03 84 993.9
20260831182241 26 164 0.0 0.0 0.00 0.03 0.03 79 994.2
20260831180737 26 208 0.0 3.2 0.00 0.03 0.03 76 994.0
20260831175233 27 223 3.2 6.4 0.00 0.03 0.03 74 993.9
20260831173729 27 154 3.2 6.4 0.00 0.03 0.03 75 994.3
20260831172225 28 170 6.4 16.1 0.00 0.03 0.03 73 994.2
20260831170725 28 222 8.0 12.9 0.00 0.03 0.03 70 994.2
20260831165225 27 227 4.8 6.4 0.00 0.03 0.03 73 994.5
20260831163723 26 210 6.4 11.3 0.00 0.03 0.03 76 994.9
20260831162223 26 257 4.8 11.3 0.00 0.03 0.03 80 995.0
20260831160720 25 174 3.2 6.4 0.00 0.03 0.03 82 995.1
20260831155216 24 289 4.8 14.5 0.00 0.03 0.03 86 995.1
20260831153712 23 208 6.4 11.3 0.00 0.03 0.03 90 995.4
20260831152212 22 202 3.2 6.4 0.00 0.03 0.03 91 995.5
20260831150707 22 180 1.6 3.2 0.00 0.03 0.03 93 995.3
20260831145203 22 157 6.4 9.7 0.13 0.03 0.03 91 995.5
20260831143659 22 151 3.2 4.8 0.00 0.00 0.00 89 996.1
20260831142158 23 129 3.2 4.8 0.00 0.00 0.00 85 995.7
20260831140658 23 176 3.2 6.4 0.00 0.00 0.00 84 995.0
20260831135158 23 155 6.4 14.5 0.00 0.00 0.00 84 995.2
20260831133654 22 164 1.6 6.4 0.00 0.00 0.00 87 995.4
20260831132150 23 214 8.0 12.9 0.00 0.00 0.00 87 995.2
20260831130648 22 180 1.6 4.8 0.00 0.00 0.00 90 995.4
20260831125143 22 221 3.2 3.2 0.00 0.00 0.00 89 995.4
20260831123641 22 165 3.2 6.4 0.00 0.00 0.00 86 995.7
20260831122136 22 180 3.2 11.3 0.00 0.00 0.00 87 995.4
20260831120632 22 171 3.2 6.4 0.00 0.00 0.00 87 995.5
20260831115130 22 200 0.0 3.2 0.00 0.00 0.00 89 995.3
20260831113630 21 145 3.2 6.4 0.00 0.00 0.00 91 994.9
20260831112125 21 130 9.7 12.9 0.00 0.00 0.00 92 994.7
20260831110624 20 138 0.0 0.0 0.00 0.00 0.00 96 994.5
20260831105119 20 143 1.6 3.2 0.00 0.00 0.00 97 994.3
20260831103618 20 160 0.0 1.6 0.00 0.00 0.00 97 994.7
20260831102115 20 186 0.0 0.0 0.00 0.00 0.00 97 994.7
20260831100613 20 169 0.0 1.6 0.00 0.00 0.00 97 994.8
20260831095113 20 174 0.0 0.0 0.00 0.00 0.00 97 994.9
20260831093612 20 177 0.0 0.0 0.00 0.00 0.00 97 995.1
20260831092111 20 204 0.0 0.0 0.00 0.00 0.00 97 995.4
20260831090607 20 154 0.0 1.6 0.00 0.00 0.00 96 995.3
20260831085105 20 192 0.0 0.0 0.00 0.00 0.00 96 995.0
20260831083605 20 180 0.0 1.6 0.00 0.00 0.00 96 995.0
20260831082105 20 174 0.0 0.0 0.00 0.00 0.00 95 994.9
20260831080603 20 138 0.0 1.6 0.00 0.00 0.00 94 995.0
20260831075100 21 173 0.0 1.6 0.00 0.00 0.00 93 995.0